Regional Weather Roundup
Issued by NWS

Home | Current Version | Previous Version | Graphics & Text | Print | Product List | Glossary Off
Versions: 1 2 3 4 5 6 7 8 9 10 11 12 13 14 15 16 17 18 19 20 21 22 23 24 25 26 27 28 29 30 31 32 33 34 35 36 37 38 39 40 41 42 43 44 45 46 47 48 49 50

000
ASUS45 KBOU 261507
RWRCO

WEATHER ROUNDUP FOR COLORADO
NATIONAL WEATHER SERVICE DENVER/BOULDER CO
900 AM MDT TUE AUG 26 2014

NOTE: "FAIR" INDICATES FEW OR NO CLOUDS BELOW 12000 FEET WITH NO
SIGNIFICANT WEATHER AND/OR OBSTRUCTIONS TO VISIBILITY.

COZ001>005-013-030-031-261600-
...NORTHWEST COLORADO...

CITY           SKY/WX    TMP DP  RH WIND       PRES   REMARKS
CRAIG          CLOUDY    55  50  83 SW5       30.27R
HAYDEN         NOT AVBL
MEEKER         CLOUDY    54  48  80 CALM      30.28R
MOUNT WERNER   NOT AVBL
STEAMBOAT SPGS CLOUDY    50  46  85 CALM      30.31S
WALDEN         PTSUNNY   50  43  76 E3        30.37F
$$

COZ006>008-011-261600-
...WEST CENTRAL VALLEYS...

CITY           SKY/WX    TMP DP  RH WIND       PRES   REMARKS
GRAND JUNCTION MOSUNNY   68  50  52 CALM      30.16R
MONTROSE       PTSUNNY   70  47  43 SE7       30.25R
EAGLE          PTSUNNY   52  46  82 CALM      30.34S
RIFLE          MOSUNNY   61  49  64 NE3       30.24R
DELTA          PTSUNNY   67  50  53 E6        30.22R
NUCLA          PTSUNNY   66  45  45 E7        30.28S
$$

COZ017>023-064>068-261600-
...SOUTHWEST COLORADO...

CITY           SKY/WX    TMP DP  RH WIND       PRES   REMARKS
DURANGO        LGT RAIN  60  47  61 E5        30.32S
CORTEZ         SUNNY     66  48  52 CALM      30.26F
PAGOSA SPRINGS PTSUNNY   61  43  52 NE3       30.40R
TELLURIDE      LGT RAIN  54  45  71 SE3       30.46R
WOLF CREEK PAS NOT AVBL
$$

COZ009-010-012-014-032>034-037-058>063-261600-
...CENTRAL COLORADO...

CITY           SKY/WX    TMP DP  RH WIND       PRES   REMARKS
ASPEN          PTSUNNY   59  43  55 S8        30.35F
BUENA VISTA    MOSUNNY   56  44  62 E3        30.42R
COPPER MTN     PTSUNNY   52  34  50 W12G18    30.64R
BERTHOUD PASS  FAIR      43  41  93 W12G20    30.67R
COTTONWOOD PAS PTSUNNY   54  43  66 SE7       30.51R
GUNNISON       MOSUNNY   52  43  71 CALM      30.41F
KREMMLING      PTSUNNY   50  41  71 CALM      30.38F
LEADVILLE      PTSUNNY   51  41  68 NW3       30.50R
MONARCH PASS   MOSUNNY   45  36  70 W8        30.73S
SALIDA         NOT AVBL
SUNLIGHT       PTSUNNY   46  41  81 CALM      30.55R
WILKERSON PASS NOT AVBL
$$

COZ069>075-261600-
...SAN LUIS VALLEY/SANGRE DE CRISTO MOUNTAINS...

CITY           SKY/WX    TMP DP  RH WIND       PRES   REMARKS
ALAMOSA        PTSUNNY   62  47  57 CALM      30.35R
LA VETA PASS   NOT AVBL
SAGUACHE       PTSUNNY   59  41  51 NW9       30.40R
$$

COZ035-036-038>040-261600-
...NORTHERN COLORADO FRONT RANGE...

CITY           SKY/WX    TMP DP  RH WIND       PRES   REMARKS
DENVER INTL AP PTSUNNY   64  56  75 SE16      30.25S
DMNS CITY PARK   N/A     66  56  69 SE5       30.24F
AURORA         PTSUNNY   63  56  79 S15       30.26F
FRONT RANGE AP NOT AVBL
ERIE MUNI ARPT PTSUNNY   65  57  77 SE7       30.24F
BOULDER MUN AP CLOUDY    61  57  88 CALM      30.25S
CENTENNIAL     PTSUNNY   62  54  74 S13       30.27R
BROOMFIELD     CLOUDY    63  57  82 CALM      30.26F
FORT COLLINS   CLOUDY    64  55  72 S10       30.24F
LONGMONT       CLOUDY    65  58  76 CALM      30.25F
$$

COZ041-046-047-076>085-087-088-261600-
...PIKES PEAK/PALMER DIVIDE AND SOUTHERN FOOTHILLS...

CITY           SKY/WX    TMP DP  RH WIND       PRES   REMARKS
COLO. SPRINGS  CLOUDY    60  54  80 S5        30.32S
A. F. ACADEMY  PTSUNNY   57  56  99 SE8       30.32F
ELLICOTT       LGT RAIN  58  54  86 CALM      30.30R
FALCON         CLOUDY    56  54  92 CALM      30.36R
FORT CARSON    CLOUDY    61  55  82 NW2       30.29F
LIMON          PTSUNNY   61  55  81 SE8       30.27F
MONUMENT HILL  CLOUDY    54  52  94 S9        30.33S
TRINIDAD       PTSUNNY   64  56  75 N8        30.29R
$$

COZ042>045-048>051-090-091-261600-
...NORTHEAST COLORADO...

CITY           SKY/WX    TMP DP  RH WIND       PRES   REMARKS
GREELEY ARPT   PTSUNNY   64  54  68 CALM      30.23F
AKRON          MOSUNNY   65  58  78 S6        30.23R
BURLINGTON     PTSUNNY   64  60  87 NE8       30.22F
WRAY             N/A     69  62  78 SE12      30.17F
STERLING       MOSUNNY   68  59  73 CALM      30.19F
HOLYOKE        PTSUNNY   70  61  73 CALM      30.19
FORT MORGAN    MOSUNNY   66  53  63 CALM      30.23F
$$

COZ086-089-092>099-261600-
...SOUTHEAST COLORADO...

CITY           SKY/WX    TMP DP  RH WIND       PRES   REMARKS
PUEBLO         CLOUDY    66  56  70 N5        30.24R
LA JUNTA       CLOUDY    66  58  75 NE7       30.21R
LAMAR          MOSUNNY   68  60  75 CALM      30.17R
SPRINGFIELD      N/A     72  58  61 S15G22    30.18S
$$


USA.gov is the U.S. government's official web portal to all federal, state and local government web resources and services.